ROMMA est une association bénévole à but non lucratif. Votre soutien est indispensable : ADHERER à ROMMA ou FAIRE un DON

Eygliers - (05, Hautes-Alpes)

Guillestrois (965 m)   Longitude: 6° 38' 04" E   Latitude: 44° 40' 37" N Station partenaire n°53
 

Détail journalier du     <<     >>

Température Precipitation Humidité Vent Dir Rafale Dir. rafale Ensol.
Heure (°C) (mm) (%) (km/h) (km/h) (min)
01:00 -2.30762NNE6NNE0
02:00 -3.00773ENE8E0
03:00 -2.50752NNE15NNE0
04:00 -3.20773SE10ESE0
05:00 -3.20751ESE5SE0
06:00 -3.40751ESE6ESE0
07:00 -3.70792ESE10ESE0
08:00 -2.70772E8E0
09:00 -1.90793N8N0
10:00 -0.60772N11NNE5
11:00 1.006702N0
12:00 2.30622NO11NO0
13:00 2.80656NO13NNO0
14:00 2.90644ONO13NNO0
15:00 1.80794O15SSO0
16:00 1.10863N8ONO0
17:00 0.60904N10N0
18:00 0.10916N16NNO0
19:00 0.10902N8N0
20:00 0.10844ENE10E0
21:00 0.10824NO18NNE0
22:00 0.30793NO11NE0
23:00 1.50645NNE18NNE0
minuit 1.30686ESE23SSE0

Graphique du 19-11-2018

 

Serveur OMMA